[[{"header":{"parameterUnit":"m.s-1","parameterCategory":1,"la1":30.2991,"la2":30.254,"lo1":-89.0895,"lo2":-89.0444,"dy":0.0017,"dx":0.0017,"nx":28,"ny":28,"refTime":"2023-08-08T21:00:00:Z","depth":0,"parameterNumber":2,"parameterNumberName":"U-component_of_WINDS"},"data":[0,0,0,0,0,0,0,0,0,0,0,0,0,0,0,0,0,0,0,0,0,0,0,0,0,0,0,0,0,0,0,0,0,0,0,0,0,0,0,0,0,0,0,0,0,0,0,0,0,0,0,0,0,0,0,0,0,0,2.1704,2.1705,0,2.182,2.1821,2.1822,2.1802,2.1799,2.1797,2.1795,2.1917,2.1922,2.1927,0,0,0,0,0,0,0,0,0,0,0,0,0,2.1465,2.147,2.1704,2.1705,2.1706,2.182,2.1821,2.1823,2.1802,2.1799,2.1797,2.1794,2.1915,2.1921,2.1927,0,0,0,0,0,0,0,0,0,0,0,0,0,2.1574,2.1471,2.1703,2.171,2.1711,2.1819,2.1821,2.1823,2.1802,2.1799,2.1796,2.1793,2.1913,2.192,2.1928,2.2038,0,0,2.1952,2.1955,0,0,0,0,0,0,0,0,2.1568,2.1583,2.1707,2.1709,2.1711,2.1793,2.1782,2.1895,2.1803,2.1768,2.1795,2.1792,2.1878,2.1888,2.1917,2.2043,2.2048,2.1952,2.1957,2.196,2.1962,0,0,0,0,0,0,0,2.156,2.1578,2.175,2.1709,2.1712,2.1707,2.1719,2.1803,2.1839,2.1771,2.1769,2.1783,2.1879,2.191,2.192,2.205,2.1952,2.1959,2.1964,2.1967,2.2271,2.2275,0,0,0,0,0,0,2.155,2.1571,2.1746,2.1753,2.163,2.1714,2.1727,2.177,2.1838,2.1845,2.1786,2.1782,2.1898,2.1911,2.1924,2.2056,2.196,2.1967,2.1972,2.2268,2.2272,2.2276,0,0,0,0,0,0,2.1545,2.1566,2.1741,2.1662,2.1684,2.1721,2.1769,2.1774,2.1805,2.1849,2.1856,2.1811,2.1896,2.1913,2.2009,2.206,2.1971,2.1978,2.2264,2.2269,2.2274,2.2321,0,0,0,0,0,0,2.1539,2.1565,2.1606,2.1663,2.1688,2.1824,2.1772,2.1778,2.1818,2.1814,2.1875,2.1882,2.1895,2.1998,2.2017,2.2069,2.1984,2.226,2.2266,2.2272,2.2315,2.2327,2.2338,0,0,0,0,0,2.153,2.1615,2.1608,2.163,2.1741,2.1827,2.1841,2.1854,2.1822,2.1864,2.1893,2.188,2.2051,2.2008,2.2029,2.2084,2.2256,2.2264,2.2272,2.231,2.2325,2.2337,0,0,0,0,0,0,2.1564,2.1623,2.1616,2.1722,2.1769,2.1823,2.1877,2.187,2.1928,2.1922,2.1936,2.195,2.2047,2.2076,2.2026,2.2194,2.2149,2.2162,2.2171,2.2186,2.2197,2.2187,2.199,0,0,0,0,0,2.1584,2.1648,2.1696,2.1785,2.181,2.1839,2.1877,2.1883,2.1933,2.1954,2.1989,2.2039,2.2104,2.2147,2.2209,2.232,2.2332,2.2368,2.2379,2.2388,2.2399,2.2458,2.2475,2.2302,2.2301,2.2301,0,0,2.1625,2.1666,2.1705,2.1793,2.1831,2.1897,2.1856,2.1929,2.1978,2.1965,2.2057,2.2085,2.2142,2.2245,2.2293,2.2272,2.2449,2.2398,2.2405,2.2411,2.2468,2.2484,2.2499,2.2307,2.2306,2.2305,0,0,2.1735,2.1772,2.185,2.1888,2.1945,2.1964,2.1983,2.2038,2.2056,2.2149,2.214,2.2199,2.2311,2.2352,2.2387,2.2512,2.2501,2.2532,2.259,2.2648,2.2662,2.2674,2.2718,2.2733,2.2542,2.2542,2.2542,0,2.1779,2.1879,2.1891,2.1964,2.2003,2.1993,2.2071,2.2108,2.2184,2.2211,2.2186,2.2326,2.2364,2.2476,2.2506,2.2535,2.2557,2.2524,2.2659,2.2671,2.2683,2.2724,2.2741,2.2546,2.2545,2.2545,2.2545,0,2.193,2.1999,2.2055,2.2127,2.2172,2.2248,2.2272,2.2316,2.2318,2.234,2.2435,2.2479,2.255,2.2578,2.2581,2.2691,2.2676,2.2655,2.2611,2.2702,2.2742,2.2758,2.255,2.2549,2.2548,2.2547,0,0,2.2063,2.214,2.2161,2.2193,2.2255,2.2309,2.2385,2.2453,2.2491,2.2544,2.2607,2.2702,2.2683,2.2723,2.2731,2.2782,2.2877,2.2755,2.2756,2.2775,2.3,2.3014,2.3032,2.2871,2.2874,2.2876,2.2994,0,2.2178,2.231,2.2323,2.2441,2.2505,2.2497,2.2563,2.2608,2.2631,2.2689,2.2714,2.2781,2.2751,2.2775,2.2826,2.2854,2.2922,2.2846,2.293,2.2932,2.2914,2.3053,2.3069,2.3178,2.301,2.3013,2.3015,0,2.2328,2.2384,2.2509,2.2562,2.2589,2.2648,2.2712,2.2767,2.2819,2.2832,2.2876,2.2877,2.2955,2.2909,2.3016,2.2965,2.3,2.3019,2.3024,2.3031,2.2978,2.3063,2.3213,2.3229,2.3039,2.3037,2.3035,0,2.2412,2.2518,2.2606,2.2634,2.2699,2.274,2.2769,2.2818,2.2858,2.2914,2.294,2.3005,2.3041,2.3091,2.3109,2.3074,2.3216,2.3171,2.3229,2.3228,2.3258,2.3256,2.3415,2.3283,2.3282,2.3282,2.3282,0,2.2537,2.2613,2.2644,2.2698,2.2784,2.2798,2.2883,2.291,2.2953,2.3013,2.301,2.3066,2.3088,2.3147,2.3162,2.3249,2.3265,2.3278,2.328,2.3277,2.3276,2.33,2.3292,2.3286,2.3285,2.3284,2.3284,0,2.2644,2.2668,2.2763,2.2816,2.2831,2.2892,2.2938,2.299,2.3012,2.3087,2.3106,2.3141,2.3211,2.3234,2.3319,2.3329,2.343,2.3427,2.3412,2.3412,2.3468,2.3462,2.3647,2.3672,2.3524,2.3526,2.3527,0,2.2722,2.278,2.284,2.2879,2.2909,2.2973,2.3014,2.3031,2.3073,2.3137,2.3182,2.3251,2.3307,2.3419,2.3452,2.3517,2.3515,2.3576,2.3525,2.352,2.3515,2.3511,2.3517,2.3585,2.3586,2.3588,2.3589,0,2.2857,2.2866,2.2925,2.2988,2.3037,2.3087,2.3136,2.3169,2.3193,2.3242,2.3313,2.3356,2.3443,2.3511,2.3578,2.3608,2.3603,2.3605,2.3621,2.3618,2.3606,2.3612,2.3437,2.36,2.3599,2.3598,2.3597,2.3597,2.2951,2.3002,2.3052,2.3118,2.3156,2.3202,2.3254,2.3282,2.3341,2.3412,2.3419,2.3496,2.3546,2.3635,2.3668,2.3729,2.3712,2.3736,2.3742,2.3747,2.3751,2.3598,2.3741,2.3741,2.374,2.374,2.374,0,2.3085,2.3117,2.3177,2.3245,2.3297,2.3287,2.3341,2.3385,2.3452,2.3499,2.3555,2.3636,2.3703,2.3741,2.3808,2.3849,2.3848,2.3866,2.3863,2.387,2.3763,2.3741,2.3865,2.3865,2.3865,2.3865,2.3865,2.3865,2.3161,2.3247,2.3262,2.3367,2.3399,2.3473,2.3504,2.3547,2.3584,2.3676,2.3731,2.3755,2.3799,2.3869,2.393,2.3939,2.3964,2.3983,2.3991,2.389,2.3877,2.3865,2.3845,2.3988,2.3988,2.4092,2.4093,2.4094]},{"header":{"parameterUnit":"m.s-1","parameterCategory":1,"la1":30.2991,"la2":30.254,"lo1":-89.0895,"lo2":-89.0444,"dy":0.0017,"dx":0.0017,"nx":28,"ny":28,"refTime":"2023-08-08T21:00:00:Z","depth":0,"parameterNumber":3,"parameterNumberName":"V-component_of_WINDS"},"data":[0,0,0,0,0,0,0,0,0,0,0,0,0,0,0,0,0,0,0,0,0,0,0,0,0,0,0,0,0,0,0,0,0,0,0,0,0,0,0,0,0,0,0,0,0,0,0,0,0,0,0,0,0,0,0,0,0,0,6.9393,6.9394,0,6.9455,6.9456,6.9457,6.9403,6.9401,6.9398,6.9396,6.9454,6.9457,6.9461,0,0,0,0,0,0,0,0,0,0,0,0,0,6.9221,6.9224,6.9393,6.9394,6.9395,6.9455,6.9456,6.9457,6.9403,6.94,6.9398,6.9395,6.9453,6.9457,6.9461,0,0,0,0,0,0,0,0,0,0,0,0,0,6.929,6.9225,6.9393,6.9375,6.9374,6.9455,6.9456,6.9457,6.9404,6.94,6.9397,6.9394,6.9451,6.9456,6.9462,6.9561,0,0,6.9478,6.948,0,0,0,0,0,0,0,0,6.9286,6.9297,6.9377,6.9377,6.9376,6.9418,6.9416,6.9492,6.9405,6.9392,6.9396,6.9392,6.9444,6.945,6.9468,6.9564,6.9566,6.9478,6.9482,6.9484,6.9486,0,0,0,0,0,0,0,6.9282,6.9294,6.9417,6.9378,6.9378,6.9362,6.9368,6.943,6.9436,6.9393,6.9389,6.9398,6.9443,6.9463,6.9469,6.9567,6.9478,6.9483,6.9486,6.9489,6.9744,6.9747,0,0,0,0,0,0,6.928,6.929,6.9415,6.9419,6.9322,6.9368,6.9375,6.9408,6.9435,6.9436,6.9401,6.9395,6.9456,6.9463,6.9471,6.9588,6.9484,6.9489,6.9492,6.974,6.9745,6.9749,0,0,0,0,0,0,6.9276,6.9291,6.9413,6.9354,6.9368,6.9374,6.9412,6.9411,6.9431,6.9441,6.9441,6.9421,6.9454,6.9464,6.9539,6.9589,6.9491,6.9496,6.9736,6.9742,6.9747,6.9823,0,0,0,0,0,0,6.9271,6.929,6.933,6.9355,6.9371,6.9482,6.9415,6.9414,6.9441,6.9435,6.946,6.9461,6.9452,6.9531,6.9544,6.9595,6.9501,6.9732,6.9739,6.9745,6.9816,6.983,6.9842,0,0,0,0,0,6.9265,6.9348,6.9332,6.9348,6.9421,6.9485,6.9494,6.9484,6.9446,6.9484,6.949,6.946,6.9582,6.9539,6.9554,6.9606,6.9728,6.9737,6.9744,6.981,6.9827,6.9842,0,0,0,0,0,0,6.9327,6.9351,6.9334,6.9428,6.9455,6.9476,6.9524,6.9503,6.954,6.9532,6.9516,6.9522,6.9601,6.9611,6.9564,6.9703,6.9648,6.966,6.9693,6.971,6.9723,6.9718,6.9505,0,0,0,0,0,6.9351,6.9403,6.9421,6.9502,6.9516,6.9518,6.9545,6.9535,6.9562,6.9573,6.9584,6.9609,6.9653,6.9682,6.9723,6.9817,6.982,6.986,6.9873,6.9884,6.9894,6.9942,6.9959,6.9775,6.9775,6.9775,0,0,6.9402,6.9422,6.9455,6.9514,6.9534,6.9586,6.9528,6.9586,6.9623,6.9581,6.9653,6.9662,6.9689,6.9773,6.9811,6.9784,6.9945,6.9894,6.9903,6.9906,6.9952,6.9969,6.9985,6.978,6.9779,6.9778,0,0,6.9521,6.9543,6.9611,6.9633,6.9664,6.9665,6.9682,6.9706,6.9711,6.9783,6.9752,6.9795,6.9872,6.9891,6.9912,7.0037,7.001,7.0051,7.0119,7.0167,7.0181,7.0194,7.0237,7.0253,7.006,7.0061,7.0061,0,6.958,6.9659,6.9649,6.9709,6.9734,6.9701,6.9768,6.9789,6.9831,6.9849,6.9819,6.9913,6.9929,7.0016,7.0047,7.0065,7.0082,7.0047,7.0181,7.0193,7.0205,7.0246,7.0262,7.0065,7.0065,7.0064,7.0064,0,6.9728,6.9783,6.9835,6.9879,6.991,6.9974,6.9971,7.0003,6.999,6.9993,7.0066,7.0084,7.0127,7.0147,7.0135,7.0233,7.0215,7.0183,7.0128,7.0227,7.0265,7.0281,7.0072,7.007,7.0069,7.0068,0,0,6.9888,6.9925,6.9944,6.9963,6.9995,7.0036,7.0096,7.014,7.0168,7.0198,7.0247,7.0312,7.0282,7.0305,7.0294,7.0336,7.0432,7.0298,7.0299,7.0321,7.0539,7.0562,7.0581,7.0415,7.0418,7.042,7.0536,0,7.0007,7.0115,7.0107,7.0208,7.0257,7.0225,7.0278,7.0302,7.0306,7.0346,7.035,7.0396,7.0354,7.0367,7.0407,7.0412,7.0475,7.0404,7.0458,7.046,7.0451,7.0601,7.0625,7.0734,7.0551,7.0554,7.0556,0,7.016,7.0198,7.0304,7.0327,7.0347,7.0395,7.0434,7.0474,7.0499,7.0499,7.0525,7.0506,7.0565,7.051,7.0589,7.054,7.0562,7.0567,7.0571,7.0575,7.0513,7.0606,7.0769,7.0785,7.0579,7.0577,7.0576,0,7.0264,7.034,7.0413,7.043,7.046,7.0494,7.0507,7.053,7.0556,7.0589,7.0606,7.0645,7.0666,7.0695,7.0687,7.0648,7.0767,7.0712,7.0767,7.0767,7.0792,7.079,7.0959,7.0809,7.0809,7.0808,7.0808,0,7.0397,7.0463,7.046,7.0505,7.0577,7.0566,7.0637,7.0645,7.0666,7.071,7.0684,7.0725,7.0713,7.0753,7.0746,7.0812,7.0822,7.0821,7.0819,7.0823,7.0823,7.0836,7.0827,7.0813,7.0812,7.0811,7.081,0,7.0524,7.0525,7.0603,7.0624,7.0631,7.0683,7.07,7.0741,7.0743,7.0799,7.0811,7.0814,7.086,7.0855,7.0906,7.0901,7.0982,7.0971,7.0974,7.0971,7.1025,7.102,7.1207,7.123,7.1067,7.1068,7.107,0,7.0608,7.0659,7.0686,7.0714,7.0731,7.0777,7.0804,7.0795,7.0823,7.0856,7.0892,7.0936,7.097,7.1045,7.1049,7.1088,7.1076,7.1139,7.1082,7.1084,7.1075,7.1071,7.1075,7.115,7.1152,7.1153,7.1154,0,7.0757,7.0755,7.0796,7.0838,7.0871,7.0903,7.0931,7.0955,7.0948,7.0982,7.1029,7.1056,7.1108,7.1151,7.1187,7.1198,7.1175,7.1173,7.1187,7.1191,7.119,7.119,7.1003,7.1168,7.1167,7.1166,7.1165,7.1164,7.0864,7.0907,7.0932,7.0978,7.0999,7.1026,7.1066,7.1073,7.1113,7.1156,7.1147,7.12,7.1222,7.1268,7.1283,7.1323,7.1299,7.1321,7.1326,7.1331,7.1336,7.1186,7.1329,7.1329,7.1328,7.1328,7.1328,0,7.101,7.1025,7.1068,7.1109,7.1145,7.1122,7.1152,7.1182,7.123,7.1253,7.1288,7.1341,7.1383,7.1391,7.143,7.146,7.145,7.147,7.1467,7.1469,7.1356,7.1339,7.1477,7.1477,7.1477,7.1477,7.1477,7.1477,7.109,7.116,7.1161,7.124,7.1253,7.1307,7.1325,7.1349,7.1368,7.1429,7.1464,7.147,7.1486,7.1526,7.1562,7.1563,7.1578,7.1602,7.1599,7.1492,7.1477,7.1463,7.1447,7.1606,7.1606,7.1709,7.171,7.171]}]]